Other Surface Observations
Issued by NWS Tucson, AZ

Home | Current Version | Previous Version | Text Only | Print | Product List | Glossary On
Versions: 1 2 3 4 5 6 7 8 9 10 11 12 13 14 15 16 17 18 19 20 21 22 23 24 25 26 27 28 29 30 31 32 33 34 35 36 37 38 39 40 41 42 43 44 45 46 47 48 49 50
000
SXUS55 KTWC 250215
OSOTWC

WEATHER ROUNDUP FOR SOUTHEAST ARIZONA
NATIONAL WEATHER SERVICE TUCSON AZ
715 PM MST TUE JAN 24 2017

AZZ504>506-514-250315-
LOCATION       SKY/WX    TMP DP  RH WIND       PRES   REMARKS
TUCSON         PTCLDY    47  30  51 NW9       30.02R
DAVIS-MONTHAN  CLEAR     45  30  57 NW6       30.01R
CHILDRENS PARK N/A      N/A N/A  50 N5                PIMA CO DEQ
ALVERNON/22ND  N/A       49 N/A N/A NW6               PIMA CO DEQ
CHERRY/GLENN   N/A       50 N/A N/A NW5               PIMA CO DEQ
TANGERINE      N/A       48 N/A N/A W5                PIMA CO DEQ
CONTL RANCH    N/A       50  28  42 NW7               PIMA CO DEQ
GRANT/1ST      N/A       49  30  47 NW6               PIMA CO DEQ
CRAYCROFT/22ND N/A       49  31  50 N/A               PIMA CO DEQ
GOLFLINKS/KOLB N/A       49  30  48 N/A               PIMA CO DEQ
AJO/12TH       N/A       50  31  48 W8                PIMA CO DEQ
FAIRGROUNDS    N/A       48 N/A N/A NW11              PIMA CO DEQ
SAGUARO        N/A       46  27  47 NW6G11            *SABINO CYN
SAN CARLOS     N/A       43  25  49 W8G17             *SAN CARLOS
GREEN VALLEY   N/A       48  21  34 SW7               PIMA CO DEQ
HORSE CAMP CYN N/A       39  27  62 W10G21            *ARAVAIPA CYN
RINCON MTNS    N/A       21  20  96 W3G10             *NR MANNING CAMP
$$

AZZ509>511-250315-
LOCATION       SKY/WX    TMP DP  RH WIND       PRES   REMARKS
SAFFORD        PTCLDY    42  30  62 NW12      29.95R
STRAY HORSE    N/A       19  18  94 N/A               *
TRAIL CABIN    N/A       27  21  78 W4G12             *N OF GRANVILLE
BLACK HILLS    NOT AVBL
DRY LAKE       N/A       20  19  95 W7G15             *NATANES MTNS
NOON CREEK     N/A       36  19  49 SW6G16            *PINALENO MTNS
COLUMBINE      NOT AVBL
GUTHRIE        N/A       29  20  70 W14G26            *SW OF GUTHRIE
$$

AZZ502-503-513-250315-
LOCATION       SKY/WX    TMP DP  RH WIND       PRES   REMARKS
NOGALES        PTCLDY    41  25  53 NW5       29.99R
SELLS          N/A       47  28  47 NE3G10            *
SASABE         N/A       43  25  49 W6G14             *ALTAR VLY
HOPKINS        N/A       26  21  82 W10G15            *SANTA RITA MTNS
CARR CYN       N/A       34  23  63 CALM              *W OF HEREFORD
$$

AZZ507-508-512-250315-
LOCATION       SKY/WX    TMP DP  RH WIND       PRES   REMARKS
SIERRA VISTA   CLEAR     35  22  59 W7        29.99R WCI  29
DOUGLAS        PTCLDY    43  21  41 W13       29.97R
EMPIRE MTNS    NOT AVBL
MULESHOE RANCH N/A       39  24  54 NW9G18            *PRESERVE
HEADQUARTERS   N/A       37  19  47 SW3G14            *CHIRICAHUA MTNS
$$

.............................NOTES.............................
THIS IS AN AUTOMATED COLLECTIVE WITH MINIMAL QUALITY CONTROL.
PIMA CO DEQ SITES HAVE NONSTANDARD WIND SENSOR HEIGHTS.
PIMA CO DEQ SITES DO NOT REPORT WIND GUSTS.
* INDICATES WIND SENSORS LOCATED AT 20 FEET INSTEAD OF 33 FEET.
..............................KEY..............................
SKY/WX - SKY CONDITION/WEATHER
TMP    - TEMPERATURE IN FAHRENHEIT
DP     - DEWPOINT IN FAHRENHEIT
RH     - RELATIVE HUMIDITY IN PERCENT
WIND   - DIRECTION AND SPEED IN MILES PER HOUR (MPH)
VRB    - VARIABLE WIND DIRECTION
PRES   - MEAN SEA LEVEL PRESSURE IN INCHES OF MERCURY
         F - FALLING PRESSURE   R - RISING PRESSURE
         S - STEADY PRESSURE
VSB    - VISIBILITY IN MILES
HX     - HEAT INDEX IN FAHRENHEIT
WCI    - WIND CHILL INDEX IN FAHRENHEIT
N/A    - NOT AVAILABLE
AFB    - AIR FORCE BASE
         DAVIS-MONTHAN IS DAVIS-MONTHAN AIR FORCE BASE
CYN    - CANYON
MTNS   - MOUNTAINS
NCA    - NATIONAL CONSERVATION AREA
NR     - NEAR
VLY    - VALLEY
CONTL  - CONTINENTAL
PIMA CO DEQ - PIMA COUNTY DEPT OF ENVIRONMENTAL QUALITY



USA.gov is the U.S. government's official web portal to all federal, state and local government web resources and services.